Location: Beutels
(47.8767°N, 9.8584°E)
Time: 00:43:31
(UTC+00:00)

Cosmos 1959 Rocket - Pass Details

Date: 19 May 2025
Orbit: 947 x 995 km, 83.0° (Epoch: 22 June)

Event Time Altitude Azimuth Distance (km) Brightness Sun altitude
Rises 20:50:41 0° 351° (N) 3,650 8.7 -14.6°
Reaches altitude 10° 20:53:11 10° 353° (N) 2,706 7.8 -14.9°
Maximum altitude 20:59:24 82° 81° (E) 985 4.5 -15.5°
Enters shadow 21:03:44 21° 168° (SSE) 2,018 5.6 -15.9°
